Greenwood, MS

2:53 PM CDT on June 25, 2018 (GMT -0500)
Greenwood-Leflore

Weather History for KGWO - August, 2017

Change the Weather History Date:

Sunday, August 13, 2017

  Actual Average Record
Temperature  
Mean Temperature 81 °F 81 °F  
Max Temperature 90 °F 93 °F 104 °F (2007)
Min Temperature 72 °F 70 °F 52 °F (2004)
Degree Days  
Heating Degree Days 0 0  
Month to date heating degree days 0 0  
Since 1 June heating degree days 0 0  
Since 1 July heating degree days 0 0  
Cooling Degree Days 16 16  
Month to date cooling degree days 192 208  
Year to date cooling degree days 1555 1456  
Since 1 June cooling degree days 1111 1126  
Growing Degree Days 30 (Base 50)    
Moisture  
Dew Point 75 °F    
Average Humidity 80    
Maximum Humidity 100    
Minimum Humidity 59    
Precipitation  
Precipitation 0.05 in 0.08 in 1.32 in (2012)
Month to date precipitation 3.87 1.14  
Year to date precipitation 33.42 32.38  
Sea Level Pressure  
Sea Level Pressure 29.93 in    
Wind  
Wind Speed 3 mph (ENE)    
Max Wind Speed 8 mph    
Max Gust Speed 15 mph    
Visibility 9 miles    
Events Rain , Thunderstorm    
T = Trace of Precipitation, MM = Missing Value Source: NWS Daily Summary

Daily Weather History Graph

Daily Weather History Graph

Search for Another Location

Airport or City:

Astronomy

Aug. 13, 2017 Rise Set
Actual Time 6:21 AM CDT 7:48 PM CDT
Civil Twilight 5:55 AM CDT 8:14 PM CDT
Nautical Twilight 5:23 AM CDT 8:46 PM CDT
Astronomical Twilight 4:50 AM CDT 9:18 PM CDT
Moon 11:41 PM CDT (8/13) 12:04 PM CDT (8/13)
Length of Visible Light 14h 19m
Length of Day
13h 26m
Waning Gibbous, 65% of the Moon is Illuminated
Aug 13
Waning Gibbous
Aug 14
Last Quarter
Aug 21
New
Aug 29
First Quarter
Sep 6
Full

Hourly Weather History & Observations

Time (CDT) Temp. Heat Index Dew Point Humidity Pressure Visibility Wind Dir Wind Speed Gust Speed Precip Events Conditions
12:53 AM 75.0 °F - 73.0 °F 94% 29.93 in 8.0 mi NE 3.5 mph - N/A   Clear
1:53 AM 75.0 °F - 72.0 °F 90% 29.93 in 9.0 mi NNE 5.8 mph - N/A   Clear
2:53 AM 73.9 °F - 71.1 °F 91% 29.93 in 10.0 mi NNE 6.9 mph - N/A   Clear
3:53 AM 73.9 °F - 71.1 °F 91% 29.94 in 10.0 mi Calm Calm - N/A   Clear
4:53 AM 73.0 °F - 71.1 °F 93% 29.95 in 9.0 mi NNE 4.6 mph - N/A   Clear
5:53 AM 72.0 °F - 71.1 °F 97% 29.96 in 8.0 mi Calm Calm - N/A   Clear
6:53 AM 73.0 °F - 71.1 °F 93% 29.97 in 6.0 mi Calm Calm - N/A   Clear
7:53 AM 75.9 °F - 72.0 °F 87% 29.95 in 9.0 mi East 4.6 mph - N/A   Clear
8:53 AM 80.1 °F 84.2 °F 73.0 °F 79% 29.97 in 9.0 mi SSE 4.6 mph - N/A   Clear
9:53 AM 84.0 °F 91.2 °F 73.9 °F 72% 29.98 in 10.0 mi Variable 4.6 mph - N/A   Clear
10:53 AM 84.9 °F 93.3 °F 75.0 °F 72% 29.98 in 10.0 mi SSW 3.5 mph - N/A   Clear
11:53 AM 88.0 °F 97.5 °F 75.0 °F 65% 29.96 in 10.0 mi Variable 3.5 mph - N/A   Clear
12:53 PM 87.1 °F 96.3 °F 75.0 °F 67% 29.94 in 10.0 mi Variable 3.5 mph - N/A   Clear
1:53 PM 89.1 °F 98.0 °F 73.9 °F 61% 29.92 in 10.0 mi SE 4.6 mph - N/A   Partly Cloudy
2:53 PM 87.1 °F 94.5 °F 73.0 °F 63% 29.91 in 10.0 mi ESE 3.5 mph - N/A   Partly Cloudy
3:08 PM 82.0 °F 90.2 °F 77.0 °F 85% 29.93 in 10.0 mi WNW 3.5 mph - N/A Thunderstorm Mostly Cloudy
3:23 PM 82.0 °F 90.2 °F 77.0 °F 85% 29.93 in 10.0 mi Calm Calm - N/A   Overcast
3:30 PM 81.0 °F 87.9 °F 77.0 °F 88% 29.92 in 9.0 mi Calm Calm - 0.00 in Rain , Thunderstorm Light Rain
3:53 PM 79.0 °F - 75.9 °F 90% 29.92 in 4.0 mi WSW 4.6 mph - 0.02 in Rain , Thunderstorm Rain
4:14 PM 78.1 °F - 77.0 °F 96% 29.92 in 10.0 mi Calm Calm - 0.01 in   Mostly Cloudy
4:53 PM 82.0 °F 91.6 °F 79.0 °F 90% 29.90 in 8.0 mi Calm Calm - 0.01 in   Mostly Cloudy
5:17 PM 82.9 °F 93.8 °F 79.0 °F 88% 29.92 in 8.0 mi North 4.6 mph - N/A   Mostly Cloudy
5:26 PM 82.9 °F 93.8 °F 79.0 °F 88% 29.91 in 8.0 mi North 3.5 mph - N/A   Mostly Cloudy
5:53 PM 82.9 °F 93.8 °F 79.0 °F 88% 29.91 in 8.0 mi Calm Calm - N/A   Partly Cloudy
6:53 PM 82.0 °F 89.4 °F 75.9 °F 82% 29.90 in 10.0 mi East 5.8 mph - N/A   Mostly Cloudy
7:53 PM 81.0 °F 88.6 °F 78.1 °F 91% 29.91 in 10.0 mi SE 4.6 mph - N/A   Clear
8:53 PM 80.1 °F 86.4 °F 78.1 °F 94% 29.91 in 10.0 mi Calm Calm - N/A   Mostly Cloudy
9:53 PM 78.1 °F - 77.0 °F 96% 29.92 in 7.0 mi Calm Calm - N/A   Mostly Cloudy
10:53 PM 78.1 °F - 77.0 °F 96% 29.91 in 9.0 mi SE 3.5 mph - 0.02 in Rain Light Rain
11:53 PM 77.0 °F - 75.9 °F 96% 29.90 in 10.0 mi Calm Calm - 0.00 in   Mostly Cloudy